Kalispell, MT

8:24 AM MDT on April 19, 2018 (GMT -0600)
Glacier Park International

Weather History for KGPI - August, 2014

Change the Weather History Date:

Wednesday, August 6, 2014

  Actual Average Record
Temperature  
Mean Temperature 71 °F 66 °F  
Max Temperature 91 °F 84 °F 95 °F (1990)
Min Temperature 51 °F 48 °F 37 °F (1980)
Degree Days  
Heating Degree Days 0 2  
Month to date heating degree days 0 12  
Since 1 June heating degree days 267 305  
Since 1 July heating degree days 14 89  
Cooling Degree Days 6 3  
Month to date cooling degree days 47 18  
Year to date cooling degree days 177 101  
Since 1 June cooling degree days 177 98  
Growing Degree Days 22 (Base 50)    
Moisture  
Dew Point 47 °F    
Average Humidity 55    
Maximum Humidity 93    
Minimum Humidity 16    
Precipitation  
Precipitation 0.00 in 0.03 in 0.48 in (1950)
Month to date precipitation 0.00 0.17  
Year to date precipitation 12.88 10.79  
Snow  
Snow 0.00 in - - ()
Month to date snowfall 0.0  
Year to date snowfall 38.2  
Since 1 July snowfall 0.0  
Snow Depth 0.00 in    
Sea Level Pressure  
Sea Level Pressure 29.91 in    
Wind  
Wind Speed 5 mph (SSW)    
Max Wind Speed 14 mph    
Max Gust Speed 17 mph    
Visibility 8 miles    
Events      
T = Trace of Precipitation, MM = Missing Value Source: NWS Daily Summary

Daily Weather History Graph

Daily Weather History Graph

Search for Another Location

Airport or City:

Astronomy

Aug. 06, 2014 Rise Set
Actual Time 6:18 AM MDT 9:05 PM MDT
Civil Twilight 5:43 AM MDT 9:41 PM MDT
Nautical Twilight 4:57 AM MDT 10:27 PM MDT
Astronomical Twilight 4:02 AM MDT 11:21 PM MDT
Moon 5:31 PM MDT (8/6) 1:55 AM MDT (8/6)
Length of Visible Light 15h 58m
Length of Day
14h 46m
Waxing Gibbous, 78% of the Moon is Illuminated
Aug 6
Waxing Gibbous
Aug 10
Full
Aug 17
Last Quarter
Aug 25
New
Sep 2
First Quarter

Hourly Weather History & Observations

Time (MDT) Temp. Dew Point Humidity Pressure Visibility Wind Dir Wind Speed Gust Speed Precip Events Conditions
12:55 AM 59.0 °F 54.0 °F 83% 29.91 in 10.0 mi Calm Calm - N/A   Clear
1:55 AM 55.9 °F 52.0 °F 87% 29.91 in 10.0 mi Calm Calm - N/A   Clear
2:55 AM 54.0 °F 52.0 °F 93% 29.91 in 10.0 mi Calm Calm - N/A   Clear
3:55 AM 53.1 °F 50.0 °F 89% 29.92 in 10.0 mi Calm Calm - N/A   Clear
4:55 AM 54.0 °F 50.0 °F 86% 29.92 in 10.0 mi East 3.5 mph - N/A   Scattered Clouds
5:55 AM 53.1 °F 50.0 °F 89% 29.94 in 10.0 mi NW 3.5 mph - N/A   Clear
6:55 AM 53.1 °F 48.9 °F 86% 29.95 in 10.0 mi Calm Calm - N/A   Clear
7:55 AM 59.0 °F 53.1 °F 81% 29.96 in 10.0 mi North 3.5 mph - N/A   Scattered Clouds
8:55 AM 66.0 °F 52.0 °F 60% 29.97 in 10.0 mi Calm Calm - N/A   Partly Cloudy
9:55 AM 71.1 °F 53.1 °F 53% 29.97 in 6.0 mi NNE 5.8 mph - N/A   Smoke
10:55 AM 73.9 °F 53.1 °F 48% 29.96 in 10.0 mi Variable 3.5 mph - N/A   Clear
11:00 AM 75.2 °F 53.6 °F 47% 30.02 in 6.0 mi Calm Calm - N/A   Smoke
11:55 AM 78.1 °F 53.1 °F 42% 29.95 in 6.0 mi SSW 3.5 mph - N/A   Smoke
12:55 PM 82.0 °F 52.0 °F 35% 29.93 in 6.0 mi Variable 5.8 mph - N/A   Smoke
1:55 PM 86.0 °F 46.0 °F 25% 29.91 in 6.0 mi South 10.4 mph - N/A   Smoke
2:55 PM 87.1 °F 44.1 °F 22% 29.89 in 6.0 mi SSE 4.6 mph - N/A   Smoke
3:55 PM 90.0 °F 43.0 °F 19% 29.87 in 6.0 mi South 9.2 mph - N/A   Smoke
4:55 PM 91.0 °F 39.9 °F 17% 29.85 in 10.0 mi South 11.5 mph - N/A   Smoke
5:55 PM 90.0 °F 37.0 °F 15% 29.84 in 10.0 mi South 8.1 mph - N/A   Smoke
6:55 PM 89.1 °F 37.9 °F 16% 29.84 in 6.0 mi WSW 8.1 mph - N/A   Smoke
7:55 PM 86.0 °F 37.9 °F 18% 29.83 in 6.0 mi WSW 9.2 mph - N/A   Smoke
8:55 PM 78.1 °F 41.0 °F 27% 29.85 in 6.0 mi West 6.9 mph - N/A   Smoke
9:55 PM 69.8 °F 42.8 °F 38% 29.94 in 10.0 mi SW 4.6 mph - N/A   Smoke
10:55 PM 64.0 °F 43.0 °F 46% 29.90 in 10.0 mi Calm Calm - N/A   Smoke
11:55 PM 59.0 °F 45.0 °F 60% 29.90 in 10.0 mi NNE 3.5 mph - N/A   Clear